Location: Caixon
(43.4106°N, 0.0273°E)
Time: 22:56:16
(UTC+00:00)

Nadezhda 1 Rocket - Pass Details

Date: 16 October 2021
Orbit: 942 x 1004 km, 83.0° (Epoch: 07 December)

Event Time Altitude Azimuth Distance (km) Brightness Sun altitude
Exits shadow 03:57:17 29° 190° (S) 1,661 5.0 -25.7°
Maximum altitude 04:00:36 86° 275° (W) 955 3.8 -25.1°
Drops below altitude 10° 04:06:43 10° 7° (N) 2,670 6.5 -24.0°
Sets 04:09:12 0° 8° (N) 3,618 7.2 -23.6°
